Вернуться в каталог

YUHENG

АктивенНаукаSSO
NORAD 44884·PAYLOAD·🇨🇳 China
Это название спутника еще не подтверждено официальными источниками.

Запущен Dec 20, 2019 с Taiyuan Satellite Launch Center

Loading…

Ближайшие Пролёты (ближайшие 24 часа)

TLE

СвежийSource: Space-Track

Эпоха: Sep 14, 2026, 12:26 UTC

1 44884U 19093F   26257.51830069  .00003880  00000-0  30543-3 0  9991
2 44884  97.7915 347.6217 0017263  89.7065 270.6137 15.01299606365821

Отслеживайте YUHENG в реальном времени с AllMySat

Download on the App Store